Year,Month,Day,Hour,Minute,Value (Times are PST for temperature in C)
2005,09,21,00,00,10.90
2005,09,21,00,01,10.90
2005,09,21,00,02,10.90
2005,09,21,00,03,10.90
2005,09,21,00,04,10.90
2005,09,21,00,05,10.90
2005,09,21,00,06,10.90
2005,09,21,00,07,10.90
2005,09,21,00,08,10.80
2005,09,21,00,09,10.80
2005,09,21,00,10,10.80
2005,09,21,00,11,10.80
2005,09,21,00,12,10.70
2005,09,21,00,13,10.70
2005,09,21,00,14,10.70
2005,09,21,00,15,10.70
2005,09,21,00,16,10.70
2005,09,21,00,17,10.70
2005,09,21,00,18,10.60
2005,09,21,00,19,10.60
2005,09,21,00,20,10.60
2005,09,21,00,21,10.60
2005,09,21,00,22,10.60
2005,09,21,00,23,10.60
2005,09,21,00,24,10.60
2005,09,21,00,25,10.60
2005,09,21,00,26,10.60
2005,09,21,00,27,10.60
2005,09,21,00,28,10.60
2005,09,21,00,29,10.50
2005,09,21,00,30,10.40
2005,09,21,00,31,10.40
2005,09,21,00,32,10.40
2005,09,21,00,33,10.30
2005,09,21,00,34,10.30
2005,09,21,00,35,10.20
2005,09,21,00,36,10.20
2005,09,21,00,37,10.20
2005,09,21,00,38,10.20
2005,09,21,00,39,10.20
2005,09,21,00,40,10.20
2005,09,21,00,41,10.20
2005,09,21,00,42,10.20
2005,09,21,00,43,10.20
2005,09,21,00,44,10.20
2005,09,21,00,45,10.20
2005,09,21,00,46,10.30
2005,09,21,00,47,10.30
2005,09,21,00,48,10.30
2005,09,21,00,49,10.30
2005,09,21,00,50,10.30
2005,09,21,00,51,10.30
2005,09,21,00,52,10.30
2005,09,21,00,53,10.30
2005,09,21,00,54,10.30
2005,09,21,00,55,10.30
2005,09,21,00,56,10.30
2005,09,21,00,57,10.30
2005,09,21,00,58,10.30
2005,09,21,00,59,10.30
2005,09,21,01,00,10.20
2005,09,21,01,01,10.20
2005,09,21,01,02,10.20
2005,09,21,01,03,10.20
2005,09,21,01,04,10.20
2005,09,21,01,05,10.10
2005,09,21,01,06,10.10
2005,09,21,01,07,10.10
2005,09,21,01,08,10.10
2005,09,21,01,09,10.10
2005,09,21,01,10,9.90
2005,09,21,01,11,9.90
2005,09,21,01,12,9.90
2005,09,21,01,13,9.90
2005,09,21,01,14,9.90
2005,09,21,01,15,9.90
2005,09,21,01,16,9.90
2005,09,21,01,17,9.80
2005,09,21,01,18,9.80
2005,09,21,01,19,9.80
2005,09,21,01,20,9.80
2005,09,21,01,21,9.70
2005,09,21,01,22,9.70
2005,09,21,01,23,9.70
2005,09,21,01,24,9.70
2005,09,21,01,25,9.70
2005,09,21,01,26,9.70
2005,09,21,01,27,9.60
2005,09,21,01,28,9.60
2005,09,21,01,29,9.60
2005,09,21,01,30,9.70
2005,09,21,01,31,9.70
2005,09,21,01,32,9.70
2005,09,21,01,33,9.70
2005,09,21,01,34,9.70
2005,09,21,01,35,9.70
2005,09,21,01,36,9.70
2005,09,21,01,37,9.70
2005,09,21,01,38,9.70
2005,09,21,01,39,9.70
2005,09,21,01,40,9.70
2005,09,21,01,41,9.70
2005,09,21,01,42,9.70
2005,09,21,01,43,9.70
2005,09,21,01,44,9.70
2005,09,21,01,45,9.70
2005,09,21,01,46,9.70
2005,09,21,01,47,9.70
2005,09,21,01,48,9.80
2005,09,21,01,49,9.80
2005,09,21,01,50,9.80
2005,09,21,01,51,9.80
2005,09,21,01,52,9.90
2005,09,21,01,53,9.90
2005,09,21,01,54,9.90
2005,09,21,01,55,9.90
2005,09,21,01,56,9.90
2005,09,21,01,57,10.00
2005,09,21,01,58,10.10
2005,09,21,01,59,10.10
2005,09,21,02,00,10.10
2005,09,21,02,01,10.10
2005,09,21,02,02,10.10
2005,09,21,02,03,10.10
2005,09,21,02,04,10.20
2005,09,21,02,05,10.20
2005,09,21,02,06,10.20
2005,09,21,02,07,10.20
2005,09,21,02,08,10.20
2005,09,21,02,09,10.10
2005,09,21,02,10,10.10
2005,09,21,02,11,10.10
2005,09,21,02,12,10.10
2005,09,21,02,13,10.10
2005,09,21,02,14,10.10
2005,09,21,02,15,10.00
2005,09,21,02,16,9.90
2005,09,21,02,17,9.90
2005,09,21,02,18,9.90
2005,09,21,02,19,9.90
2005,09,21,02,20,9.90
2005,09,21,02,21,9.80
2005,09,21,02,22,9.80
2005,09,21,02,23,9.80
2005,09,21,02,24,9.80
2005,09,21,02,25,9.70
2005,09,21,02,26,9.70
2005,09,21,02,27,9.70
2005,09,21,02,28,9.70
2005,09,21,02,29,9.70
2005,09,21,02,30,9.70
2005,09,21,02,31,9.70
2005,09,21,02,32,9.70
2005,09,21,02,33,9.70
2005,09,21,02,34,9.70
2005,09,21,02,35,9.80
2005,09,21,02,36,9.80
2005,09,21,02,37,9.80
2005,09,21,02,38,9.80
2005,09,21,02,39,9.80
2005,09,21,02,40,9.80
2005,09,21,02,41,9.70
2005,09,21,02,42,9.70
2005,09,21,02,43,9.70
2005,09,21,02,44,9.70
2005,09,21,02,45,9.70
2005,09,21,02,46,9.70
2005,09,21,02,47,9.70
2005,09,21,02,48,9.70
2005,09,21,02,49,9.70
2005,09,21,02,50,9.70
2005,09,21,02,51,9.70
2005,09,21,02,52,9.70
2005,09,21,02,53,9.70
2005,09,21,02,54,9.60
2005,09,21,02,55,9.60
2005,09,21,02,56,9.60
2005,09,21,02,57,9.60
2005,09,21,02,58,9.50
2005,09,21,02,59,9.50
2005,09,21,03,00,9.50
2005,09,21,03,01,9.50
2005,09,21,03,02,9.40
2005,09,21,03,03,9.40
2005,09,21,03,04,9.40
2005,09,21,03,05,9.30
2005,09,21,03,06,9.30
2005,09,21,03,07,9.30
2005,09,21,03,08,9.20
2005,09,21,03,09,9.20
2005,09,21,03,10,9.20
2005,09,21,03,11,9.20
2005,09,21,03,12,9.20
2005,09,21,03,13,9.20
2005,09,21,03,14,9.20
2005,09,21,03,15,9.20
2005,09,21,03,16,9.20
2005,09,21,03,17,9.20
2005,09,21,03,18,9.20
2005,09,21,03,19,9.20
2005,09,21,03,20,9.20
2005,09,21,03,21,9.20
2005,09,21,03,22,9.20
2005,09,21,03,23,9.30
2005,09,21,03,24,9.40
2005,09,21,03,25,9.40
2005,09,21,03,26,9.50
2005,09,21,03,27,9.60
2005,09,21,03,28,9.70
2005,09,21,03,29,9.70
2005,09,21,03,30,9.80
2005,09,21,03,31,9.90
2005,09,21,03,32,9.90
2005,09,21,03,33,9.90
2005,09,21,03,34,10.00
2005,09,21,03,35,10.10
2005,09,21,03,36,10.10
2005,09,21,03,37,10.10
2005,09,21,03,38,10.10
2005,09,21,03,39,10.10
2005,09,21,03,40,10.20
2005,09,21,03,41,10.20
2005,09,21,03,42,10.20
2005,09,21,03,43,10.30
2005,09,21,03,44,10.30
2005,09,21,03,45,10.30
2005,09,21,03,46,10.30
2005,09,21,03,47,10.30
2005,09,21,03,48,10.20
2005,09,21,03,49,10.10
2005,09,21,03,50,9.90
2005,09,21,03,51,9.80
2005,09,21,03,52,9.70
2005,09,21,03,53,9.60
2005,09,21,03,54,9.50
2005,09,21,03,55,9.40
2005,09,21,03,56,9.30
2005,09,21,03,57,9.20
2005,09,21,03,58,9.10
2005,09,21,03,59,9.00
2005,09,21,04,00,8.90
2005,09,21,04,01,8.90
2005,09,21,04,02,8.80
2005,09,21,04,03,8.70
2005,09,21,04,04,8.70
2005,09,21,04,05,8.70
2005,09,21,04,06,8.70
2005,09,21,04,07,8.60
2005,09,21,04,08,8.60
2005,09,21,04,09,8.60
2005,09,21,04,10,8.50
2005,09,21,04,11,8.50
2005,09,21,04,12,8.50
2005,09,21,04,13,8.50
2005,09,21,04,14,8.50
2005,09,21,04,15,8.50
2005,09,21,04,16,8.50
2005,09,21,04,17,8.40
2005,09,21,04,18,8.40
2005,09,21,04,19,8.40
2005,09,21,04,20,8.40
2005,09,21,04,21,8.40
2005,09,21,04,22,8.40
2005,09,21,04,23,8.30
2005,09,21,04,24,8.30
2005,09,21,04,25,8.30
2005,09,21,04,26,8.30
2005,09,21,04,27,8.30
2005,09,21,04,28,8.20
2005,09,21,04,29,8.20
2005,09,21,04,30,8.20
2005,09,21,04,31,8.20
2005,09,21,04,32,8.20
2005,09,21,04,33,8.20
2005,09,21,04,34,8.20
2005,09,21,04,35,8.20
2005,09,21,04,36,8.20
2005,09,21,04,37,8.10
2005,09,21,04,38,8.10
2005,09,21,04,39,8.00
2005,09,21,04,40,8.00
2005,09,21,04,41,7.90
2005,09,21,04,42,7.90
2005,09,21,04,43,7.90
2005,09,21,04,44,7.80
2005,09,21,04,45,7.80
2005,09,21,04,46,7.80
2005,09,21,04,47,7.80
2005,09,21,04,48,7.70
2005,09,21,04,49,7.70
2005,09,21,04,50,7.70
2005,09,21,04,51,7.70
2005,09,21,04,52,7.70
2005,09,21,04,53,7.70
2005,09,21,04,54,7.70
2005,09,21,04,55,7.70
2005,09,21,04,56,7.70
2005,09,21,04,57,7.70
2005,09,21,04,58,7.70
2005,09,21,04,59,7.70
2005,09,21,05,00,7.70
2005,09,21,05,01,7.70
2005,09,21,05,02,7.80
2005,09,21,05,03,7.80
2005,09,21,05,04,7.80
2005,09,21,05,05,7.90
2005,09,21,05,06,7.90
2005,09,21,05,07,7.90
2005,09,21,05,08,8.00
2005,09,21,05,09,8.00
2005,09,21,05,10,8.10
2005,09,21,05,11,8.10
2005,09,21,05,12,8.10
2005,09,21,05,13,8.10
2005,09,21,05,14,8.10
2005,09,21,05,15,8.20
2005,09,21,05,16,8.20
2005,09,21,05,17,8.20
2005,09,21,05,18,8.20
2005,09,21,05,19,8.20
2005,09,21,05,20,8.30
2005,09,21,05,21,8.30
2005,09,21,05,22,8.30
2005,09,21,05,23,8.40
2005,09,21,05,24,8.30
2005,09,21,05,25,8.30
2005,09,21,05,26,8.30
2005,09,21,05,27,8.30
2005,09,21,05,28,8.30
2005,09,21,05,29,8.30
2005,09,21,05,30,8.30
2005,09,21,05,31,8.20
2005,09,21,05,32,8.20
2005,09,21,05,33,8.20
2005,09,21,05,34,8.20
2005,09,21,05,35,8.20
2005,09,21,05,36,8.20
2005,09,21,05,37,8.20
2005,09,21,05,38,8.20
2005,09,21,05,39,8.20
2005,09,21,05,40,8.10
2005,09,21,05,41,8.10
2005,09,21,05,42,8.10
2005,09,21,05,43,8.10
2005,09,21,05,44,8.00
2005,09,21,05,45,8.00
2005,09,21,05,46,8.00
2005,09,21,05,47,8.00
2005,09,21,05,48,8.00
2005,09,21,05,49,7.90
2005,09,21,05,50,7.90
2005,09,21,05,51,7.90
2005,09,21,05,52,7.80
2005,09,21,05,53,7.80
2005,09,21,05,54,7.80
2005,09,21,05,55,7.80
2005,09,21,05,56,7.80
2005,09,21,05,57,7.80
2005,09,21,05,58,7.80
2005,09,21,05,59,7.80
2005,09,21,06,00,7.80
2005,09,21,06,01,7.80
2005,09,21,06,02,7.70
2005,09,21,06,03,7.70
2005,09,21,06,04,7.60
2005,09,21,06,05,7.60
2005,09,21,06,06,7.60
2005,09,21,06,07,7.60
2005,09,21,06,08,7.60
2005,09,21,06,09,7.60
2005,09,21,06,10,7.50
2005,09,21,06,11,7.50
2005,09,21,06,12,7.50
2005,09,21,06,13,7.50
2005,09,21,06,14,7.40
2005,09,21,06,15,7.40
2005,09,21,06,16,7.40
2005,09,21,06,17,7.40
2005,09,21,06,18,7.40
2005,09,21,06,19,7.40
2005,09,21,06,20,7.30
2005,09,21,06,21,7.30
2005,09,21,06,22,7.40
2005,09,21,06,23,7.40
2005,09,21,06,24,7.40
2005,09,21,06,25,7.40
2005,09,21,06,26,7.50
2005,09,21,06,27,7.50
2005,09,21,06,28,7.50
2005,09,21,06,29,7.50
2005,09,21,06,30,7.50
2005,09,21,06,31,7.50
2005,09,21,06,32,7.50
2005,09,21,06,33,7.50
2005,09,21,06,34,7.50
2005,09,21,06,35,7.50
2005,09,21,06,36,7.50
2005,09,21,06,37,7.60
2005,09,21,06,38,7.60
2005,09,21,06,39,7.60
2005,09,21,06,40,7.70
2005,09,21,06,41,7.70
2005,09,21,06,42,7.80
2005,09,21,06,43,7.80
2005,09,21,06,44,7.80
2005,09,21,06,45,7.80
2005,09,21,06,46,7.80
2005,09,21,06,47,7.80
2005,09,21,06,48,7.90
2005,09,21,06,49,7.90
2005,09,21,06,50,7.90
2005,09,21,06,51,7.90
2005,09,21,06,52,7.90
2005,09,21,06,53,7.90
2005,09,21,06,54,7.90
2005,09,21,06,55,7.90
2005,09,21,06,56,7.90
2005,09,21,06,57,7.90
2005,09,21,06,58,7.90
2005,09,21,06,59,7.90
2005,09,21,07,00,7.90
2005,09,21,07,01,7.90
2005,09,21,07,02,8.00
2005,09,21,07,03,8.00
2005,09,21,07,04,8.00
2005,09,21,07,05,8.00
2005,09,21,07,06,8.10
2005,09,21,07,07,8.10
2005,09,21,07,08,8.20
2005,09,21,07,09,8.20
2005,09,21,07,10,8.30
2005,09,21,07,11,8.30
2005,09,21,07,12,8.40
2005,09,21,07,13,8.50
2005,09,21,07,14,8.50
2005,09,21,07,15,8.50
2005,09,21,07,16,8.60
2005,09,21,07,17,8.60
2005,09,21,07,18,8.70
2005,09,21,07,19,8.80
2005,09,21,07,20,8.80
2005,09,21,07,21,8.90
2005,09,21,07,22,8.90
2005,09,21,07,23,8.90
2005,09,21,07,24,8.90
2005,09,21,07,25,9.00
2005,09,21,07,26,9.00
2005,09,21,07,27,9.00
2005,09,21,07,28,9.00
2005,09,21,07,29,9.00
2005,09,21,07,30,9.10
2005,09,21,07,31,9.10
2005,09,21,07,32,9.10
2005,09,21,07,33,9.20
2005,09,21,07,34,9.20
2005,09,21,07,35,9.20
2005,09,21,07,36,9.20
2005,09,21,07,37,9.20
2005,09,21,07,38,9.20
2005,09,21,07,39,9.20
2005,09,21,07,40,9.20
2005,09,21,07,41,9.20
2005,09,21,07,42,9.20
2005,09,21,07,43,9.10
2005,09,21,07,44,9.00
2005,09,21,07,45,8.90
2005,09,21,07,46,8.80
2005,09,21,07,47,8.70
2005,09,21,07,48,8.60
2005,09,21,07,49,8.50
2005,09,21,07,50,8.50
2005,09,21,07,51,8.40
2005,09,21,07,52,8.30
2005,09,21,07,53,8.20
2005,09,21,07,54,8.20
2005,09,21,07,55,8.10
2005,09,21,07,56,8.10
2005,09,21,07,57,8.00
2005,09,21,07,58,8.00
2005,09,21,07,59,8.00
2005,09,21,08,00,8.00
2005,09,21,08,01,8.00
2005,09,21,08,02,8.00
2005,09,21,08,03,8.00
2005,09,21,08,04,8.10
2005,09,21,08,05,8.10
2005,09,21,08,06,8.10
2005,09,21,08,07,8.10
2005,09,21,08,08,8.20
2005,09,21,08,09,8.20
2005,09,21,08,10,8.30
2005,09,21,08,11,8.40
2005,09,21,08,12,8.50
2005,09,21,08,13,8.50
2005,09,21,08,14,8.60
2005,09,21,08,15,8.60
2005,09,21,08,16,8.60
2005,09,21,08,17,8.80
2005,09,21,08,18,8.80
2005,09,21,08,19,8.90
2005,09,21,08,20,9.00
2005,09,21,08,21,9.00
2005,09,21,08,22,9.10
2005,09,21,08,23,9.10
2005,09,21,08,24,9.20
2005,09,21,08,25,9.20
2005,09,21,08,26,9.20
2005,09,21,08,27,9.20
2005,09,21,08,28,9.30
2005,09,21,08,29,9.30
2005,09,21,08,30,9.40
2005,09,21,08,31,9.40
2005,09,21,08,32,9.50
2005,09,21,08,33,9.50
2005,09,21,08,34,9.60
2005,09,21,08,35,9.60
2005,09,21,08,36,9.70
2005,09,21,08,37,9.70
2005,09,21,08,38,9.70
2005,09,21,08,39,9.70
2005,09,21,08,40,9.70
2005,09,21,08,41,9.80
2005,09,21,08,42,9.90
2005,09,21,08,43,9.90
2005,09,21,08,44,10.00
2005,09,21,08,45,10.10
2005,09,21,08,46,10.10
2005,09,21,08,47,10.20
2005,09,21,08,48,10.20
2005,09,21,08,49,10.30
2005,09,21,08,50,10.40
2005,09,21,08,51,10.40
2005,09,21,08,52,10.50
2005,09,21,08,53,10.60
2005,09,21,08,54,10.60
2005,09,21,08,55,10.60
2005,09,21,08,56,10.60
2005,09,21,08,57,10.60
2005,09,21,08,58,10.90
2005,09,21,08,59,10.90
2005,09,21,09,00,11.00
2005,09,21,09,01,11.10
2005,09,21,09,02,11.20
2005,09,21,09,03,11.30
2005,09,21,09,04,11.40
2005,09,21,09,05,11.50
2005,09,21,09,06,11.60
2005,09,21,09,07,11.70
2005,09,21,09,08,11.80
2005,09,21,09,09,11.80
2005,09,21,09,10,11.90
2005,09,21,09,11,12.00
2005,09,21,09,12,12.00
2005,09,21,09,13,12.10
2005,09,21,09,14,12.30
2005,09,21,09,15,12.30
2005,09,21,09,16,12.40
2005,09,21,09,17,12.50
2005,09,21,09,18,12.60
2005,09,21,09,19,12.60
2005,09,21,09,20,12.70
2005,09,21,09,21,12.80
2005,09,21,09,22,12.80
2005,09,21,09,23,12.80
2005,09,21,09,24,12.80
2005,09,21,09,25,12.80
2005,09,21,09,26,12.80
2005,09,21,09,27,12.90
2005,09,21,09,28,12.90
2005,09,21,09,29,12.90
2005,09,21,09,30,12.90
2005,09,21,09,31,12.90
2005,09,21,09,32,12.90
2005,09,21,09,33,13.00
2005,09,21,09,34,13.00
2005,09,21,09,35,13.00
2005,09,21,09,36,13.00
2005,09,21,09,37,13.00
2005,09,21,09,38,13.00
2005,09,21,09,39,13.00
2005,09,21,09,40,13.00
2005,09,21,09,41,13.00
2005,09,21,09,42,13.10
2005,09,21,09,43,13.10
2005,09,21,09,44,13.10
2005,09,21,09,45,13.10
2005,09,21,09,46,13.10
2005,09,21,09,47,13.10
2005,09,21,09,48,13.10
2005,09,21,09,49,13.20
2005,09,21,09,50,13.20
2005,09,21,09,51,13.20
2005,09,21,09,52,13.20
2005,09,21,09,53,13.20
2005,09,21,09,54,13.30
2005,09,21,09,55,13.30
2005,09,21,09,56,13.30
2005,09,21,09,57,13.30
2005,09,21,09,58,13.30
2005,09,21,09,59,13.30
2005,09,21,10,00,13.30
2005,09,21,10,01,13.30
2005,09,21,10,02,13.30
2005,09,21,10,03,13.30
2005,09,21,10,04,13.30
2005,09,21,10,05,13.40
2005,09,21,10,06,13.40
2005,09,21,10,07,13.40
2005,09,21,10,08,13.50
2005,09,21,10,09,13.50
2005,09,21,10,10,13.50
2005,09,21,10,11,13.60
2005,09,21,10,12,13.60
2005,09,21,10,13,13.60
2005,09,21,10,14,13.60
2005,09,21,10,15,13.60
2005,09,21,10,16,13.60
2005,09,21,10,17,13.70
2005,09,21,10,18,13.70
2005,09,21,10,19,13.70
2005,09,21,10,20,13.70
2005,09,21,10,21,13.70
2005,09,21,10,22,13.70
2005,09,21,10,23,13.70
2005,09,21,10,24,13.70
2005,09,21,10,25,13.70
2005,09,21,10,26,13.80
2005,09,21,10,27,13.80
2005,09,21,10,28,13.80
2005,09,21,10,29,13.80
2005,09,21,10,30,13.80
2005,09,21,10,31,13.80
2005,09,21,10,32,13.80
2005,09,21,10,33,13.90
2005,09,21,10,34,13.90
2005,09,21,10,35,14.00
2005,09,21,10,36,14.00
2005,09,21,10,37,14.00
2005,09,21,10,38,14.00
2005,09,21,10,39,14.00
2005,09,21,10,40,14.00
2005,09,21,10,41,14.10
2005,09,21,10,42,14.10
2005,09,21,10,43,14.10
2005,09,21,10,44,14.20
2005,09,21,10,45,14.20
2005,09,21,10,46,14.20
2005,09,21,10,47,14.20
2005,09,21,10,48,14.30
2005,09,21,10,49,14.40
2005,09,21,10,50,14.50
2005,09,21,10,51,14.60
2005,09,21,10,52,14.60
2005,09,21,10,53,14.60
2005,09,21,10,54,14.60
2005,09,21,10,55,14.60
2005,09,21,10,56,14.60
2005,09,21,10,57,14.50
2005,09,21,10,58,14.50
2005,09,21,10,59,14.50
2005,09,21,11,00,14.50
2005,09,21,11,01,14.50
2005,09,21,11,02,14.60
2005,09,21,11,03,14.60
2005,09,21,11,04,14.60
2005,09,21,11,05,14.60
2005,09,21,11,06,14.60
2005,09,21,11,07,14.60
2005,09,21,11,08,14.60
2005,09,21,11,09,14.60
2005,09,21,11,10,14.60
2005,09,21,11,11,14.50
2005,09,21,11,12,14.50
2005,09,21,11,13,14.50
2005,09,21,11,14,14.50
2005,09,21,11,15,14.50
2005,09,21,11,16,14.50
2005,09,21,11,17,14.50
2005,09,21,11,18,14.50
2005,09,21,11,19,14.50
2005,09,21,11,20,14.40
2005,09,21,11,21,14.50
2005,09,21,11,22,14.60
2005,09,21,11,23,14.60
2005,09,21,11,24,14.60
2005,09,21,11,25,14.60
2005,09,21,11,26,14.60
2005,09,21,11,27,14.60
2005,09,21,11,28,14.70
2005,09,21,11,29,14.70
2005,09,21,11,30,14.70
2005,09,21,11,31,14.70
2005,09,21,11,32,14.70
2005,09,21,11,33,14.80
2005,09,21,11,34,14.80
2005,09,21,11,35,14.80
2005,09,21,11,36,14.80
2005,09,21,11,37,14.80
2005,09,21,11,38,14.80
2005,09,21,11,39,14.80
2005,09,21,11,40,14.80
2005,09,21,11,41,14.80
2005,09,21,11,42,14.80
2005,09,21,11,43,14.80
2005,09,21,11,44,14.80
2005,09,21,11,45,14.80
2005,09,21,11,46,14.80
2005,09,21,11,47,14.80
2005,09,21,11,48,14.80
2005,09,21,11,49,14.80
2005,09,21,11,50,14.80
2005,09,21,11,51,14.80
2005,09,21,11,52,14.80
2005,09,21,11,53,14.80
2005,09,21,11,54,14.80
2005,09,21,11,55,14.80
2005,09,21,11,56,14.80
2005,09,21,11,57,14.80
2005,09,21,11,58,14.80
2005,09,21,11,59,14.80
2005,09,21,12,00,14.80
2005,09,21,12,01,14.80
2005,09,21,12,02,14.90
2005,09,21,12,03,14.90
2005,09,21,12,04,15.00
2005,09,21,12,05,15.00
2005,09,21,12,06,14.90
2005,09,21,12,07,14.90
2005,09,21,12,08,15.00
2005,09,21,12,09,15.00
2005,09,21,12,10,15.10
2005,09,21,12,11,15.30
2005,09,21,12,12,15.40
2005,09,21,12,13,15.40
2005,09,21,12,14,15.40
2005,09,21,12,15,15.40
2005,09,21,12,16,15.40
2005,09,21,12,17,15.30
2005,09,21,12,18,15.30
2005,09,21,12,19,15.30
2005,09,21,12,20,15.30
2005,09,21,12,21,15.30
2005,09,21,12,22,15.40
2005,09,21,12,23,15.40
2005,09,21,12,24,15.50
2005,09,21,12,25,15.50
2005,09,21,12,26,15.50
2005,09,21,12,27,15.60
2005,09,21,12,28,15.60
2005,09,21,12,29,15.70
2005,09,21,12,30,15.70
2005,09,21,12,31,15.70
2005,09,21,12,32,15.70
2005,09,21,12,33,15.60
2005,09,21,12,34,15.60
2005,09,21,12,35,15.60
2005,09,21,12,36,15.70
2005,09,21,12,37,15.70
2005,09,21,12,38,15.80
2005,09,21,12,39,15.80
2005,09,21,12,40,15.80
2005,09,21,12,41,15.90
2005,09,21,12,42,15.90
2005,09,21,12,43,15.90
2005,09,21,12,44,15.80
2005,09,21,12,45,15.80
2005,09,21,12,46,15.90
2005,09,21,12,47,16.10
2005,09,21,12,48,16.20
2005,09,21,12,49,16.30
2005,09,21,12,50,16.30
2005,09,21,12,51,16.40
2005,09,21,12,52,16.30
2005,09,21,12,53,16.20
2005,09,21,12,54,16.20
2005,09,21,12,55,16.10
2005,09,21,12,56,16.10
2005,09,21,12,57,16.10
2005,09,21,12,58,16.10
2005,09,21,12,59,16.10
2005,09,21,13,00,16.10
2005,09,21,13,01,16.10
2005,09,21,13,02,16.10
2005,09,21,13,03,16.10
2005,09,21,13,04,16.20
2005,09,21,13,05,16.20
2005,09,21,13,06,16.20
2005,09,21,13,07,16.20
2005,09,21,13,08,16.30
2005,09,21,13,09,16.30
2005,09,21,13,10,16.40
2005,09,21,13,11,16.50
2005,09,21,13,12,16.70
2005,09,21,13,13,16.70
2005,09,21,13,14,16.80
2005,09,21,13,15,16.90
2005,09,21,13,16,16.80
2005,09,21,13,17,16.80
2005,09,21,13,18,16.70
2005,09,21,13,19,16.70
2005,09,21,13,20,16.70
2005,09,21,13,21,16.70
2005,09,21,13,22,16.70
2005,09,21,13,23,16.60
2005,09,21,13,24,16.70
2005,09,21,13,25,16.70
2005,09,21,13,26,16.70
2005,09,21,13,27,16.60
2005,09,21,13,28,16.60
2005,09,21,13,29,16.70
2005,09,21,13,30,16.70
2005,09,21,13,31,16.70
2005,09,21,13,32,16.70
2005,09,21,13,33,16.70
2005,09,21,13,34,16.70
2005,09,21,13,35,16.70
2005,09,21,13,36,16.70
2005,09,21,13,37,16.70
2005,09,21,13,38,16.70
2005,09,21,13,39,16.70
2005,09,21,13,40,16.70
2005,09,21,13,41,16.70
2005,09,21,13,42,16.70
2005,09,21,13,43,16.70
2005,09,21,13,44,16.70
2005,09,21,13,45,16.80
2005,09,21,13,46,16.80
2005,09,21,13,47,16.80
2005,09,21,13,48,16.90
2005,09,21,13,49,16.90
2005,09,21,13,50,16.90
2005,09,21,13,51,16.90
2005,09,21,13,52,16.80
2005,09,21,13,53,16.80
2005,09,21,13,54,16.90
2005,09,21,13,55,17.00
2005,09,21,13,56,17.00
2005,09,21,13,57,17.00
2005,09,21,13,58,17.00
2005,09,21,13,59,17.00
2005,09,21,14,00,16.90
2005,09,21,14,01,16.90
2005,09,21,14,02,16.90
2005,09,21,14,03,16.90
2005,09,21,14,04,17.00
2005,09,21,14,05,17.00
2005,09,21,14,06,16.90
2005,09,21,14,07,16.80
2005,09,21,14,08,16.80
2005,09,21,14,09,16.70
2005,09,21,14,10,16.70
2005,09,21,14,11,16.60
2005,09,21,14,12,16.60
2005,09,21,14,13,16.60
2005,09,21,14,14,16.70
2005,09,21,14,15,16.70
2005,09,21,14,16,16.70
2005,09,21,14,17,16.60
2005,09,21,14,18,16.60
2005,09,21,14,19,16.50
2005,09,21,14,20,16.40
2005,09,21,14,21,16.30
2005,09,21,14,22,16.10
2005,09,21,14,23,16.10
2005,09,21,14,24,16.10
2005,09,21,14,25,16.10
2005,09,21,14,26,16.20
2005,09,21,14,27,16.20
2005,09,21,14,28,16.20
2005,09,21,14,29,16.10
2005,09,21,14,30,16.10
2005,09,21,14,31,16.00
2005,09,21,14,32,15.90
2005,09,21,14,33,15.90
2005,09,21,14,34,15.80
2005,09,21,14,35,15.80
2005,09,21,14,36,15.80
2005,09,21,14,37,15.80
2005,09,21,14,38,15.80
2005,09,21,14,39,15.90
2005,09,21,14,40,15.80
2005,09,21,14,41,15.80
2005,09,21,14,42,15.70
2005,09,21,14,43,15.60
2005,09,21,14,44,15.50
2005,09,21,14,45,15.50
2005,09,21,14,46,15.50
2005,09,21,14,47,15.50
2005,09,21,14,48,15.40
2005,09,21,14,49,15.40
2005,09,21,14,50,15.40
2005,09,21,14,51,15.50
2005,09,21,14,52,15.50
2005,09,21,14,53,15.60
2005,09,21,14,54,15.60
2005,09,21,14,55,15.60
2005,09,21,14,56,15.60
2005,09,21,14,57,15.60
2005,09,21,14,58,15.60
2005,09,21,14,59,15.60
2005,09,21,15,00,15.60
2005,09,21,15,01,15.60
2005,09,21,15,02,15.60
2005,09,21,15,03,15.40
2005,09,21,15,04,15.30
2005,09,21,15,05,15.30
2005,09,21,15,06,15.30
2005,09,21,15,07,15.30
2005,09,21,15,08,15.30
2005,09,21,15,09,15.40
2005,09,21,15,10,15.30
2005,09,21,15,11,15.30
2005,09,21,15,12,15.30
2005,09,21,15,13,15.30
2005,09,21,15,14,15.30
2005,09,21,15,15,15.30
2005,09,21,15,16,15.30
2005,09,21,15,17,15.20
2005,09,21,15,18,15.10
2005,09,21,15,19,15.10
2005,09,21,15,20,15.10
2005,09,21,15,21,15.10
2005,09,21,15,22,15.10
2005,09,21,15,23,15.10
2005,09,21,15,24,15.20
2005,09,21,15,25,15.30
2005,09,21,15,26,15.30
2005,09,21,15,27,15.30
2005,09,21,15,28,15.30
2005,09,21,15,29,15.30
2005,09,21,15,30,15.30
2005,09,21,15,31,15.40
2005,09,21,15,32,15.50
2005,09,21,15,33,15.50
2005,09,21,15,34,15.40
2005,09,21,15,35,15.30
2005,09,21,15,36,15.30
2005,09,21,15,37,15.30
2005,09,21,15,38,15.40
2005,09,21,15,39,15.40
2005,09,21,15,40,15.40
2005,09,21,15,41,15.40
2005,09,21,15,42,15.40
2005,09,21,15,43,15.30
2005,09,21,15,44,15.20
2005,09,21,15,45,15.00
2005,09,21,15,46,14.90
2005,09,21,15,47,14.80
2005,09,21,15,48,14.80
2005,09,21,15,49,14.70
2005,09,21,15,50,14.50
2005,09,21,15,51,14.40
2005,09,21,15,52,14.40
2005,09,21,15,53,14.50
2005,09,21,15,54,14.60
2005,09,21,15,55,14.70
2005,09,21,15,56,14.80
2005,09,21,15,57,14.80
2005,09,21,15,58,14.90
2005,09,21,15,59,15.00
2005,09,21,16,00,15.10
2005,09,21,16,01,15.20
2005,09,21,16,02,15.30
2005,09,21,16,03,15.30
2005,09,21,16,04,15.30
2005,09,21,16,05,15.30
2005,09,21,16,06,15.30
2005,09,21,16,07,15.20
2005,09,21,16,08,15.30
2005,09,21,16,09,15.30
2005,09,21,16,10,15.30
2005,09,21,16,11,15.30
2005,09,21,16,12,15.30
2005,09,21,16,13,15.40
2005,09,21,16,14,15.40
2005,09,21,16,15,15.40
2005,09,21,16,16,15.30
2005,09,21,16,17,15.30
2005,09,21,16,18,15.30
2005,09,21,16,19,15.40
2005,09,21,16,20,15.40
2005,09,21,16,21,15.50
2005,09,21,16,22,15.50
2005,09,21,16,23,15.50
2005,09,21,16,24,15.60
2005,09,21,16,25,15.70
2005,09,21,16,26,15.80
2005,09,21,16,27,15.80
2005,09,21,16,28,15.80
2005,09,21,16,29,15.90
2005,09,21,16,30,16.00
2005,09,21,16,31,16.10
2005,09,21,16,32,16.20
2005,09,21,16,33,16.30
2005,09,21,16,34,16.40
2005,09,21,16,35,16.40
2005,09,21,16,36,16.40
2005,09,21,16,37,16.50
2005,09,21,16,38,16.50
2005,09,21,16,39,16.40
2005,09,21,16,40,16.50
2005,09,21,16,41,16.60
2005,09,21,16,42,16.70
2005,09,21,16,43,16.70
2005,09,21,16,44,16.70
2005,09,21,16,45,16.70
2005,09,21,16,46,16.80
2005,09,21,16,47,16.80
2005,09,21,16,48,16.80
2005,09,21,16,49,16.70
2005,09,21,16,50,16.70
2005,09,21,16,51,16.60
2005,09,21,16,52,16.60
2005,09,21,16,53,16.50
2005,09,21,16,54,16.40
2005,09,21,16,55,16.40
2005,09,21,16,56,16.40
2005,09,21,16,57,16.40
2005,09,21,16,58,16.40
2005,09,21,16,59,16.40
2005,09,21,17,00,16.40
2005,09,21,17,01,16.40
2005,09,21,17,02,16.40
2005,09,21,17,03,16.50
2005,09,21,17,04,16.60
2005,09,21,17,05,16.60
2005,09,21,17,06,16.60
2005,09,21,17,07,16.70
2005,09,21,17,08,16.70
2005,09,21,17,09,16.70
2005,09,21,17,10,16.60
2005,09,21,17,11,16.60
2005,09,21,17,12,16.50
2005,09,21,17,13,16.40
2005,09,21,17,14,16.40
2005,09,21,17,15,16.40
2005,09,21,17,16,16.30
2005,09,21,17,17,16.30
2005,09,21,17,18,16.20
2005,09,21,17,19,16.30
2005,09,21,17,20,16.40
2005,09,21,17,21,16.40
2005,09,21,17,22,16.40
2005,09,21,17,23,16.40
2005,09,21,17,24,16.30
2005,09,21,17,25,16.20
2005,09,21,17,26,16.20
2005,09,21,17,27,16.20
2005,09,21,17,28,16.10
2005,09,21,17,29,16.10
2005,09,21,17,30,16.10
2005,09,21,17,31,16.20
2005,09,21,17,32,16.20
2005,09,21,17,33,16.20
2005,09,21,17,34,16.10
2005,09,21,17,35,16.10
2005,09,21,17,36,16.10
2005,09,21,17,37,16.10